SCP
0 0 0 0 0 0 0 0 0 0 0 0 0 0 0 0 0 0 0 0 0 0 0 0 0 0 0 0 0 0 0 0 0 0 0 0 0 0 0 0 0 0 0
0 0 0 0 0 0 0 0 0 0 0 0 0 0 0 0 0 0 0 0 0 0 0 0 0 0 0 0 0 0 0 0 0 0 0 0 0 0 0 0 0 0 0
0 0 0 0 0 0 0 0 0 0 0 0 0 0 0 0 0 0 0 0 0 0 0 0 0 0 0 0 0 0 0 0 0 0 0 0 0 0 0 0 0 0 0
0 0 0 0 0 0 0 0 0 0 0 0 0 0 0 0 0 0 0 0 0 0 0 0 0 0 0 0 0 0 0 0 0 0 0 0 0 0 0 0 0 0 0
0 0 0 0 0 0 0 0 0 0 0 0 0 0 0 0 0 0 0 0 0 0 0 0 0 0 0 0 0 0 0 0 0 0 0 0 0 0 0 0 0 0 0
0 0 0 0 0 0 0 0 0 0 0 0 0 0 0 0 0 0 0 0 0 0 0 0 0 0 0 0 0 0 0 0 0 0 0 0 0 0 0 0 0 0 0
0 0 0 0 0 0 0 0 0 0 0 0 0 0 0 0 0 0 0 0 0 0 0 0 0 0 0 0 0 0 0 0 0 0 0 0 0 0 0 0 0 0 0
0 0 0 0 0 0 0 0 0 0 0 0 0 0 0 0 0 0 0 0 0 0 0 0 0 0 0 0 0 0 0 0 0 0 0 0 0 0 0 0 0 0 0
0 0 0 0 0 0 0 0 0 0 0 0 0 0 0 0 0 0 0 0 0 0 0 0 0 0 0 0 0 0 0 0 0 0 0 0 0 0 0 0 0 0 0
0 0 0 0 0 0 0 0 0 0 0 0 0 0 0 0 0 0 0 0 0 0 0 0 0 0 0 0 0 0 0 0 0 0 0 0 0 0 0 0 0 0 0
0 0 0 0 0 0 0 0 0 0 0 0 0 0 0 0 0 0 0 0 0 0 0 0 0 0 0 0 0 0 0 0 0 0 0 0 0 0 0 0 0 0 0
0 0 0 0 0 0 0 0 0 0 0 0 0 0 0 0 0 0 0 0 0 0 0 0 0 0 0 0 0 0 0 0 0 0 0 0 0 0 0 0 0 0 0
0 0 0 0 0 0 0 0 0 0 0 0 0 0 0 0 0 0 0 0 0 0 0 0 0 0 0 0 0 0 0 0 0 0 0 0 0 0 0 0 0 0 0
0 0 0 0 0 0 0 0 0 0 0 0 0 0 0 0 0 0 0 0 0 0 0 0 0 0 0 0 0 0 0 0 0 0 0 0 0 0 0 0 0 0 0
0 0 0 0 0 0 0 0 0 0 0 0 0 0 0 0 0 0 0 0 0 0 0 0 0 0 0 0 0 0 0 0 0 0 0 0 0 0 0 0 0 0 0
0 0 0 0 0 0 0 0 0 0 0 0 0 0 0 0 0 0 0 0 0 0 0 0 0 0 0 0 0 0 0 0 0 0 0 0 0 0 0 0 0 0 0
0 0 0 0 0 0 0 0 0 0 0 0 0 0 0 0 0 0 0 0 0 0 0 0 0 0 0 0 0 0 0 0 0 0 0 0 0 0 0 0 0 0 0
0 0 0 0 0 0 0 0 0 0 0 0 0 0 0 0 0 0 0 0 0 0 0 0 0 0 0 0 0 0 0 0 0 0 0 0 0 0 0 0 0 0 0
0 0 0 0 0 0 0 0 0 0 0 0 0 0 0 0 0 0 0 0 0 0 0 0 0 0 0 0 0 0 0 0 0 0 0 0 0 0 0 0 0 0 0
0 0 0 0 0 0 0 0 0 0 0 0 0 0 0 0 0 0 0 0 0 0 0 0 0 0 0 0 0 0 0 0 0 0 0 0 0 0 0 0 0 0 0
0 0 0 0 0 0 0 0 0 0 0 0 0 0 0 0 0 0 0 0 0 0 0 0 0 0 0 0 0 0 0 0 0 0 0 0 0 0 0 0 0 0 0
0 0 0 0 0 0 0 0 0 0 0 0 0 0 0 0 0 0 0 0 0 0 0 0 0 0 0 0 0 0 0 0 0 0 0 0 0 0 0 0 0 0 0
0 0 0 0 0 0 0 0 0 0 0 0 0 0 0 0 0 0 0 0 0 0 0 0 0 0 0 0 0 0 0 0 0 0 0 0 0 0 0 0 0 0 0
0 0 0 0 0 0 0 0 0 0 0 0 0 0 0 0 0 0 0 0 0 0 0 0 0 0 0 0 0 0 0 0 0 0 0 0 0 0 0 0 0 0 0
0 0 0 0 0 0 0 0 0 0 0 0 0 0 0 0 0 0 0 0 0 0 0 0 0 0 0 0 0 0 0 0 0 0 0 0 0 0 0 0 0 0 0
0 0 0 0 0 0 0 0 0 0 0 0 0 0 0 0 0 0 0 0 0 0 0 0 0 0 0 0 0 0 0 0 0 0 0 0 0 0 0 0 0 0 0
Wind_Speed_500mb
23 22 22 22 25 26 27 28 30 32 33 33 33 33 32 32 32 34 37 39 39 35 34 35 38 38 39 44 45 46 49 49 46 46 46 45 43 44 44 43 43 42 41
25 23 23 23 24 23 24 26 28 31 33 34 35 35 34 32 32 33 37 37 36 31 26 28 32 28 29 26 30 36 42 48 44 44 43 43 42 41 41 39 38 38 39
26 25 24 23 22 22 25 29 32 35 36 36 37 36 35 34 31 30 33 34 33 29 27 31 30 27 27 30 38 42 39 38 39 37 37 35 33 32 32 32 32 32 32
29 26 24 24 24 26 29 32 35 35 37 38 37 37 37 35 34 31 28 31 32 30 26 25 27 30 33 32 30 29 33 33 32 31 30 30 29 28 28 31 30 31 32
30 28 27 27 27 29 32 34 35 35 35 36 39 39 37 35 33 32 27 28 33 34 31 27 23 23 21 23 23 25 25 28 29 28 29 28 28 29 31 30 29 29 29
32 31 30 31 31 33 35 35 34 34 35 37 39 37 35 33 30 29 26 26 31 35 34 29 24 26 24 23 22 21 21 23 27 30 30 30 29 30 29 26 25 27 29
34 34 33 34 36 38 37 36 36 37 35 35 39 34 26 23 21 21 25 28 30 38 40 35 29 27 25 26 25 28 28 28 25 25 25 25 25 25 24 25 27 27 27
36 36 37 38 40 40 39 37 39 39 36 32 27 26 13 14 16 16 23 27 27 30 31 31 27 26 25 26 28 33 31 30 30 28 27 25 23 23 22 22 23 24 24
38 38 40 40 40 41 40 39 39 38 35 27 28 18 8 8 4 12 23 29 30 30 28 28 25 24 26 27 28 30 31 30 31 29 27 24 23 22 23 23 22 20 20
40 38 37 39 41 42 41 38 37 36 35 31 26 27 27 26 7 5 19 24 29 33 31 29 28 26 24 27 30 30 31 30 29 26 23 23 23 23 22 22 22 22 20
36 39 40 39 38 38 37 35 34 35 35 32 30 32 29 30 32 25 10 19 30 33 35 41 40 39 32 31 31 31 29 27 29 26 25 26 25 24 23 23 23 22 23
39 39 37 35 35 36 34 32 31 33 35 35 34 36 37 30 28 35 34 26 26 26 33 35 33 37 34 35 34 30 28 29 31 29 28 26 26 26 25 25 24 23 22
40 37 35 33 32 32 31 30 30 33 33 34 35 35 36 39 40 35 34 35 32 32 33 34 31 32 33 33 34 29 31 32 32 31 31 31 29 27 28 29 28 28 26
38 35 33 33 32 33 31 30 32 32 30 29 30 31 30 32 33 37 38 33 26 28 22 24 23 29 29 28 28 28 27 26 23 22 23 23 25 27 29 30 31 31 29
35 34 33 35 34 36 36 35 35 33 33 32 32 34 33 33 34 33 31 31 29 16 18 17 23 31 32 27 28 23 18 18 17 17 17 18 18 18 18 18 18 19 22
33 34 34 35 38 39 40 39 39 38 40 38 36 37 35 34 35 33 33 33 33 33 24 29 26 28 20 24 24 19 15 14 13 12 12 11 10 10 9 11 13 15 18
32 33 33 33 38 39 40 40 38 37 37 37 37 37 36 35 36 33 33 33 34 36 42 40 32 26 18 20 21 18 13 11 10 9 7 6 7 9 10 12 12 13 14
32 30 31 30 31 30 31 33 32 32 32 34 34 35 35 35 36 33 31 30 29 29 33 34 25 24 19 21 20 19 17 12 12 11 13 12 12 13 14 14 16 16 19
31 30 29 27 27 28 28 29 31 32 34 35 34 35 34 34 35 32 28 27 26 26 29 29 23 16 16 19 20 22 22 18 18 18 18 20 18 19 20 22 22 22 24
31 29 27 26 27 28 28 28 29 28 30 33 34 34 35 35 34 31 27 23 22 23 23 27 26 21 21 18 21 22 23 21 20 23 22 25 26 26 25 26 28 28 27
31 31 29 28 28 29 27 26 27 27 28 31 32 34 34 33 32 33 34 28 28 28 29 30 33 30 25 22 22 24 24 24 22 24 21 23 25 31 30 29 30 31 31
33 33 32 31 32 31 26 26 26 27 28 33 33 33 33 34 35 36 36 33 34 37 37 37 38 40 34 28 27 30 32 30 32 23 23 29 29 30 30 29 33 33 32
33 33 35 36 36 35 31 30 29 32 32 33 34 36 36 35 35 37 38 41 43 43 42 40 45 46 43 34 33 38 40 38 40 37 39 45 34 29 25 34 32 32 36
31 31 34 35 38 39 37 36 35 37 40 39 38 37 37 37 39 41 44 47 48 47 47 49 52 51 47 43 42 42 45 50 48 44 40 48 45 40 34 26 30 38 35
28 29 31 32 35 37 34 37 37 41 45 46 46 45 44 46 44 44 50 53 52 53 50 53 54 53 53 49 48 49 52 53 53 50 45 43 45 45 39 39 30 25 27
22 24 26 27 30 31 29 31 32 39 45 47 48 48 48 50 49 47 49 54 60 58 54 55 56 57 56 55 50 53 54 56 54 54 44 39 31 34 32 38 28 19 41
Wind_Direction_500mb
251 258 267 277 284 291 295 298 300 302 302 301 298 294 289 285 278 271 269 268 269 267 261 251 246 246 243 240 243 241 244 250 251 254 259 262 262 262 261 261 262 262 263
249 258 267 276 284 293 298 302 303 303 302 301 299 298 295 289 283 275 270 267 269 266 256 237 241 238 244 234 230 235 241 248 253 255 255 257 259 259 261 264 263 263 264
250 257 265 274 286 293 299 302 302 301 299 298 297 294 291 289 285 278 273 268 265 264 252 232 217 209 199 215 235 247 252 256 254 254 254 253 252 252 252 255 258 261 260
251 256 266 276 287 293 298 301 301 300 298 295 293 291 289 287 283 278 272 266 257 253 253 248 243 238 236 238 244 245 244 248 249 249 248 248 251 254 256 255 257 256 258
248 255 263 273 282 290 297 299 300 300 299 297 292 290 290 284 279 273 268 255 248 248 247 246 240 232 226 226 225 231 238 238 238 242 247 250 252 253 253 255 257 261 264
245 253 263 273 282 290 295 296 294 294 297 299 297 296 288 283 275 269 260 243 241 248 252 251 243 234 227 225 226 226 231 239 239 239 243 246 249 254 259 258 257 259 265
248 255 264 275 284 289 290 290 290 291 292 294 295 297 295 283 274 267 247 240 237 241 252 252 240 234 231 230 230 234 239 245 252 252 251 253 251 246 248 256 264 269 273
252 259 269 276 280 284 286 287 288 289 290 291 289 302 306 290 268 251 233 243 246 246 239 237 236 240 240 239 236 243 249 251 255 259 259 257 256 258 266 274 278 280 280
250 259 267 272 278 281 282 283 284 284 282 278 273 266 281 254 273 235 232 248 254 253 247 239 240 243 247 248 249 252 251 252 255 257 255 252 253 259 268 271 275 277 276
254 258 263 271 276 278 278 278 276 275 277 273 257 249 243 246 255 244 226 236 248 254 251 246 247 252 253 252 251 251 254 257 262 262 257 255 258 262 265 267 269 274 271
249 262 270 275 276 276 274 272 270 270 269 268 259 246 247 248 246 246 241 223 232 242 251 255 258 259 256 250 249 253 260 263 266 264 261 260 259 260 262 261 264 268 269
260 266 270 275 276 274 271 267 265 264 264 262 257 253 247 245 240 235 237 231 225 236 250 256 253 248 245 242 245 254 268 271 272 267 261 261 260 260 262 260 261 262 266
257 265 269 271 271 268 266 263 263 264 261 256 253 247 244 244 239 237 237 240 243 249 255 264 249 241 239 236 246 265 275 276 274 268 260 258 263 265 265 264 263 265 272
261 264 267 268 266 265 262 259 262 261 261 258 255 251 247 245 242 240 242 244 250 252 259 246 233 229 227 233 250 269 274 275 273 266 260 262 266 268 270 271 271 270 274
256 262 264 266 266 264 262 264 262 262 262 259 256 254 251 248 245 243 240 238 239 243 223 237 230 228 228 231 265 268 267 270 267 268 269 269 270 273 280 282 282 280 281
253 257 261 262 263 260 260 263 263 262 261 258 254 253 250 249 250 249 248 244 237 238 237 222 236 228 211 249 256 257 258 259 266 273 275 276 275 277 283 295 298 292 293
252 257 261 261 260 257 256 256 258 257 255 253 248 247 248 249 250 249 250 245 241 237 245 240 245 220 257 247 250 253 246 250 269 281 267 279 294 290 291 299 303 304 306
248 253 258 260 262 259 256 255 255 255 251 249 248 246 245 248 250 247 244 244 244 243 246 259 255 241 230 232 237 246 256 250 266 280 275 285 296 300 289 292 300 304 305
246 249 253 256 259 259 261 261 258 254 253 250 249 247 247 246 249 245 241 241 243 242 244 252 257 237 224 243 245 245 246 249 261 268 278 272 284 291 286 283 289 293 297
246 250 253 254 255 257 261 261 259 255 252 251 252 250 248 245 242 235 236 240 243 246 247 252 254 258 257 250 252 247 239 250 253 270 274 270 267 285 284 281 282 287 294
244 247 252 254 255 257 258 258 258 254 251 251 251 251 249 245 236 231 240 245 251 253 254 258 263 267 266 266 270 268 262 260 263 270 274 255 263 284 281 280 280 283 288
244 247 251 255 257 258 256 256 259 255 254 253 252 250 247 240 231 234 245 249 251 254 257 261 267 269 273 277 278 281 281 283 286 280 270 252 278 279 280 277 283 280 284
249 251 252 253 255 256 252 251 254 257 256 256 256 255 250 240 238 243 247 252 253 256 260 263 266 270 277 281 279 278 281 280 279 282 286 282 287 285 277 283 279 280 289
251 251 253 253 255 255 252 251 251 252 255 256 257 256 251 246 247 250 253 253 254 256 258 263 268 274 275 277 275 275 275 276 278 279 285 284 291 291 293 271 277 284 282
256 256 256 256 256 256 251 250 248 248 252 255 257 255 253 252 251 255 259 258 260 259 260 262 264 266 270 272 274 271 268 273 277 278 282 282 283 293 289 293 291 275 270
256 256 257 258 257 259 259 253 246 249 253 257 260 261 258 257 256 256 258 263 264 261 264 262 262 263 266 267 266 266 271 270 273 278 285 271 280 286 294 292 281 264 290
Wind_Speed_850mb
23 22 22 22 25 26 27 28 30 32 33 33 33 33 32 32 32 34 37 39 39 35 34 35 38 38 39 44 45 46 49 49 46 46 46 45 43 44 44 43 43 42 41
25 23 23 23 24 23 24 26 28 31 33 34 35 35 34 32 32 33 37 37 36 31 26 28 32 28 29 26 30 36 42 48 44 44 43 43 42 41 41 39 38 38 39
26 25 24 23 22 22 25 29 32 35 36 36 37 36 35 34 31 30 33 34 33 29 27 31 30 27 27 30 38 42 39 38 39 37 37 35 33 32 32 32 32 32 32
29 26 24 24 24 26 29 32 35 35 37 38 37 37 37 35 34 31 28 31 32 30 26 25 27 30 33 32 30 29 33 33 32 31 30 30 29 28 28 31 30 31 32
30 28 27 27 27 29 32 34 35 35 35 36 39 39 37 35 33 32 27 28 33 34 31 27 23 23 21 23 23 25 25 28 29 28 29 28 28 29 31 30 29 29 29
32 31 30 31 31 33 35 35 34 34 35 37 39 37 35 33 30 29 26 26 31 35 34 29 24 26 24 23 22 21 21 23 27 30 30 30 29 30 29 26 25 27 29
34 34 33 34 36 38 37 36 36 37 35 35 39 34 26 23 21 21 25 28 30 38 40 35 29 27 25 26 25 28 28 28 25 25 25 25 25 25 24 25 27 27 27
36 36 37 38 40 40 39 37 39 39 36 32 27 26 13 14 16 16 23 27 27 30 31 31 27 26 25 26 28 33 31 30 30 28 27 25 23 23 22 22 23 24 24
38 38 40 40 40 41 40 39 39 38 35 27 28 18 8 8 4 12 23 29 30 30 28 28 25 24 26 27 28 30 31 30 31 29 27 24 23 22 23 23 22 20 20
40 38 37 39 41 42 41 38 37 36 35 31 26 27 27 26 7 5 19 24 29 33 31 29 28 26 24 27 30 30 31 30 29 26 23 23 23 23 22 22 22 22 20
36 39 40 39 38 38 37 35 34 35 35 32 30 32 29 30 32 25 10 19 30 33 35 41 40 39 32 31 31 31 29 27 29 26 25 26 25 24 23 23 23 22 23
39 39 37 35 35 36 34 32 31 33 35 35 34 36 37 30 28 35 34 26 26 26 33 35 33 37 34 35 34 30 28 29 31 29 28 26 26 26 25 25 24 23 22
40 37 35 33 32 32 31 30 30 33 33 34 35 35 36 39 40 35 34 35 32 32 33 34 31 32 33 33 34 29 31 32 32 31 31 31 29 27 28 29 28 28 26
38 35 33 33 32 33 31 30 32 32 30 29 30 31 30 32 33 37 38 33 26 28 22 24 23 29 29 28 28 28 27 26 23 22 23 23 25 27 29 30 31 31 29
35 34 33 35 34 36 36 35 35 33 33 32 32 34 33 33 34 33 31 31 29 16 18 17 23 31 32 27 28 23 18 18 17 17 17 18 18 18 18 18 18 19 22
33 34 34 35 38 39 40 39 39 38 40 38 36 37 35 34 35 33 33 33 33 33 24 29 26 28 20 24 24 19 15 14 13 12 12 11 10 10 9 11 13 15 18
32 33 33 33 38 39 40 40 38 37 37 37 37 37 36 35 36 33 33 33 34 36 42 40 32 26 18 20 21 18 13 11 10 9 7 6 7 9 10 12 12 13 14
32 30 31 30 31 30 31 33 32 32 32 34 34 35 35 35 36 33 31 30 29 29 33 34 25 24 19 21 20 19 17 12 12 11 13 12 12 13 14 14 16 16 19
31 30 29 27 27 28 28 29 31 32 34 35 34 35 34 34 35 32 28 27 26 26 29 29 23 16 16 19 20 22 22 18 18 18 18 20 18 19 20 22 22 22 24
31 29 27 26 27 28 28 28 29 28 30 33 34 34 35 35 34 31 27 23 22 23 23 27 26 21 21 18 21 22 23 21 20 23 22 25 26 26 25 26 28 28 27
31 31 29 28 28 29 27 26 27 27 28 31 32 34 34 33 32 33 34 28 28 28 29 30 33 30 25 22 22 24 24 24 22 24 21 23 25 31 30 29 30 31 31
33 33 32 31 32 31 26 26 26 27 28 33 33 33 33 34 35 36 36 33 34 37 37 37 38 40 34 28 27 30 32 30 32 23 23 29 29 30 30 29 33 33 32
33 33 35 36 36 35 31 30 29 32 32 33 34 36 36 35 35 37 38 41 43 43 42 40 45 46 43 34 33 38 40 38 40 37 39 45 34 29 25 34 32 32 36
31 31 34 35 38 39 37 36 35 37 40 39 38 37 37 37 39 41 44 47 48 47 47 49 52 51 47 43 42 42 45 50 48 44 40 48 45 40 34 26 30 38 35
28 29 31 32 35 37 34 37 37 41 45 46 46 45 44 46 44 44 50 53 52 53 50 53 54 53 53 49 48 49 52 53 53 50 45 43 45 45 39 39 30 25 27
22 24 26 27 30 31 29 31 32 39 45 47 48 48 48 50 49 47 49 54 60 58 54 55 56 57 56 55 50 53 54 56 54 54 44 39 31 34 32 38 28 19 41
Wind_Direction_850mb
251 258 267 277 284 291 295 298 300 302 302 301 298 294 289 285 278 271 269 268 269 267 261 251 246 246 243 240 243 241 244 250 251 254 259 262 262 262 261 261 262 262 263
249 258 267 276 284 293 298 302 303 303 302 301 299 298 295 289 283 275 270 267 269 266 256 237 241 238 244 234 230 235 241 248 253 255 255 257 259 259 261 264 263 263 264
250 257 265 274 286 293 299 302 302 301 299 298 297 294 291 289 285 278 273 268 265 264 252 232 217 209 199 215 235 247 252 256 254 254 254 253 252 252 252 255 258 261 260
251 256 266 276 287 293 298 301 301 300 298 295 293 291 289 287 283 278 272 266 257 253 253 248 243 238 236 238 244 245 244 248 249 249 248 248 251 254 256 255 257 256 258
248 255 263 273 282 290 297 299 300 300 299 297 292 290 290 284 279 273 268 255 248 248 247 246 240 232 226 226 225 231 238 238 238 242 247 250 252 253 253 255 257 261 264
245 253 263 273 282 290 295 296 294 294 297 299 297 296 288 283 275 269 260 243 241 248 252 251 243 234 227 225 226 226 231 239 239 239 243 246 249 254 259 258 257 259 265
248 255 264 275 284 289 290 290 290 291 292 294 295 297 295 283 274 267 247 240 237 241 252 252 240 234 231 230 230 234 239 245 252 252 251 253 251 246 248 256 264 269 273
252 259 269 276 280 284 286 287 288 289 290 291 289 302 306 290 268 251 233 243 246 246 239 237 236 240 240 239 236 243 249 251 255 259 259 257 256 258 266 274 278 280 280
250 259 267 272 278 281 282 283 284 284 282 278 273 266 281 254 273 235 232 248 254 253 247 239 240 243 247 248 249 252 251 252 255 257 255 252 253 259 268 271 275 277 276
254 258 263 271 276 278 278 278 276 275 277 273 257 249 243 246 255 244 226 236 248 254 251 246 247 252 253 252 251 251 254 257 262 262 257 255 258 262 265 267 269 274 271
249 262 270 275 276 276 274 272 270 270 269 268 259 246 247 248 246 246 241 223 232 242 251 255 258 259 256 250 249 253 260 263 266 264 261 260 259 260 262 261 264 268 269
260 266 270 275 276 274 271 267 265 264 264 262 257 253 247 245 240 235 237 231 225 236 250 256 253 248 245 242 245 254 268 271 272 267 261 261 260 260 262 260 261 262 266
257 265 269 271 271 268 266 263 263 264 261 256 253 247 244 244 239 237 237 240 243 249 255 264 249 241 239 236 246 265 275 276 274 268 260 258 263 265 265 264 263 265 272
261 264 267 268 266 265 262 259 262 261 261 258 255 251 247 245 242 240 242 244 250 252 259 246 233 229 227 233 250 269 274 275 273 266 260 262 266 268 270 271 271 270 274
256 262 264 266 266 264 262 264 262 262 262 259 256 254 251 248 245 243 240 238 239 243 223 237 230 228 228 231 265 268 267 270 267 268 269 269 270 273 280 282 282 280 281
253 257 261 262 263 260 260 263 263 262 261 258 254 253 250 249 250 249 248 244 237 238 237 222 236 228 211 249 256 257 258 259 266 273 275 276 275 277 283 295 298 292 293
252 257 261 261 260 257 256 256 258 257 255 253 248 247 248 249 250 249 250 245 241 237 245 240 245 220 257 247 250 253 246 250 269 281 267 279 294 290 291 299 303 304 306
248 253 258 260 262 259 256 255 255 255 251 249 248 246 245 248 250 247 244 244 244 243 246 259 255 241 230 232 237 246 256 250 266 280 275 285 296 300 289 292 300 304 305
246 249 253 256 259 259 261 261 258 254 253 250 249 247 247 246 249 245 241 241 243 242 244 252 257 237 224 243 245 245 246 249 261 268 278 272 284 291 286 283 289 293 297
246 250 253 254 255 257 261 261 259 255 252 251 252 250 248 245 242 235 236 240 243 246 247 252 254 258 257 250 252 247 239 250 253 270 274 270 267 285 284 281 282 287 294
244 247 252 254 255 257 258 258 258 254 251 251 251 251 249 245 236 231 240 245 251 253 254 258 263 267 266 266 270 268 262 260 263 270 274 255 263 284 281 280 280 283 288
244 247 251 255 257 258 256 256 259 255 254 253 252 250 247 240 231 234 245 249 251 254 257 261 267 269 273 277 278 281 281 283 286 280 270 252 278 279 280 277 283 280 284
249 251 252 253 255 256 252 251 254 257 256 256 256 255 250 240 238 243 247 252 253 256 260 263 266 270 277 281 279 278 281 280 279 282 286 282 287 285 277 283 279 280 289
251 251 253 253 255 255 252 251 251 252 255 256 257 256 251 246 247 250 253 253 254 256 258 263 268 274 275 277 275 275 275 276 278 279 285 284 291 291 293 271 277 284 282
256 256 256 256 256 256 251 250 248 248 252 255 257 255 253 252 251 255 259 258 260 259 260 262 264 266 270 272 274 271 268 273 277 278 282 282 283 293 289 293 291 275 270
256 256 257 258 257 259 259 253 246 249 253 257 260 261 258 257 256 256 258 263 264 261 264 262 262 263 266 267 266 266 271 270 273 278 285 271 280 286 294 292 281 264 290